Volver al catálogo

ARIANE 5 R/B

ActivoHEO
NORAD 38993·ROCKET BODY·🇫🇷 France

Lanzado Nov 10, 2012 desde Guiana Space Centre

Loading…

Próximos Pases (próximas 24 horas)

TLE

ActualizadoSource: Space-Track

Época: Sep 14, 2026, 18:16 UTC

1 38993U 12062C   26257.76143133  .00012641  00000-0  14511-2 0  9991
2 38993   2.7056 336.5833 6931927 213.9487  70.3331  2.75129815126349

Sigue ARIANE 5 R/B en tiempo real con AllMySat

Download on the App Store